N5RML-1 Weather Reports


Display with metric or nautical units.
time (UTC)temp
F
wind
direction
speed
MPH
gust
MPH
rain 1hr
in
rain 24hr
in
rain mn
in
humidity
%
barometer
mb
20260901210521 86 0.0 0.0 0.00 0.00 0.00 79 1017.3
20260901205527 86 0.0 0.0 0.00 0.00 0.00 80 1017.3
20260901204535 86 0.0 0.0 0.00 0.00 0.00 80 1017.4
20260901203525 85 0.0 0.0 0.00 0.00 0.00 82 1017.8
20260901202533 84 0.0 0.0 0.00 0.00 0.00 84 1018.1
20260901201603 84 153 2.0 3.0 0.00 0.00 0.00 84 1018.3
20260901200531 85 167 3.0 6.0 0.00 0.00 0.00 79 1018.5
20260901195520 85 186 5.0 7.0 0.00 0.00 0.00 78 1018.6
20260901194528 87 306 2.0 4.0 0.00 0.00 0.00 76 1018.6
20260901193536 88 208 3.0 5.0 0.00 0.00 0.00 76 1018.5
20260901192526 92 22 2.0 4.0 0.00 0.00 0.00 67 1018.4
20260901191533 93 9 2.0 6.0 0.00 0.00 0.00 63 1018.2
20260901190522 94 154 4.0 7.0 0.00 0.00 0.00 65 1018.3
20260901185531 93 151 4.0 7.0 0.00 0.00 0.00 66 1018.1
20260901184540 94 111 3.0 8.0 0.00 0.00 0.00 66 1018.1
20260901183528 94 144 4.0 6.0 0.00 0.00 0.00 65 1018.0
20260901182556 93 33 5.0 10.0 0.00 0.00 0.00 67 1018.1
20260901181605 94 112 6.0 8.0 0.00 0.00 0.00 66 1018.2
20260901180533 94 95 5.0 8.0 0.00 0.00 0.00 66 1018.3
20260901175542 94 299 3.0 5.0 0.00 0.00 0.00 66 1018.4
20260901174530 94 110 3.0 9.0 0.00 0.00 0.00 66 1018.5
20260901173520 93 214 4.0 7.0 0.00 0.00 0.00 67 1018.5
20260901172528 93 37 3.0 7.0 0.00 0.00 0.00 68 1018.5
20260901171536 92 34 3.0 7.0 0.00 0.00 0.00 69 1018.7
20260901170525 89 360 3.0 10.0 0.00 0.00 0.00 73 1018.7
20260901165533 89 110 3.0 5.0 0.00 0.00 0.00 74 1018.8
20260901164523 92 121 4.0 7.0 0.00 0.00 0.00 67 1018.9
20260901163531 94 162 4.0 9.0 0.00 0.00 0.00 61 1019.0
20260901162520 93 78 3.0 5.0 0.00 0.00 0.00 60 1019.1
20260901161528 93 131 4.0 6.0 0.00 0.00 0.00 63 1019.0
20260901160536 92 126 5.0 8.0 0.00 0.00 0.00 66 1018.9
20260901155525 93 103 4.0 6.0 0.00 0.00 0.00 65 1018.8
20260901154533 92 143 4.0 7.0 0.00 0.00 0.00 66 1018.7
20260901153522 91 134 4.0 6.0 0.00 0.00 0.00 69 1018.8
20260901152530 91 144 4.0 6.0 0.00 0.00 0.00 68 1018.7
20260901151520 91 144 5.0 7.0 0.00 0.00 0.00 68 1018.6
20260901150527 90 119 3.0 6.0 0.00 0.01 0.00 72 1018.7
20260901145535 90 123 3.0 5.0 0.00 0.01 0.00 73 1018.7
20260901144525 89 95 3.0 6.0 0.00 0.01 0.00 76 1018.6
20260901143533 88 146 4.0 6.0 0.00 0.01 0.00 78 1018.7
20260901142542 88 142 4.0 5.0 0.00 0.01 0.00 77 1018.8
20260901141550 88 143 3.0 6.0 0.00 0.01 0.00 77 1018.7
20260901140519 87 133 3.0 7.0 0.00 0.01 0.00 79 1018.8
20260901135528 86 156 3.0 6.0 0.00 0.01 0.00 81 1018.7
20260901134535 86 139 3.0 5.0 0.00 0.01 0.00 83 1018.7
20260901133524 85 157 2.0 7.0 0.00 0.01 0.00 87 1018.7
20260901132533 84 161 2.0 3.0 0.00 0.01 0.00 88 1018.7
20260901131542 83 110 1.0 3.0 0.00 0.01 0.00 91 1018.7
20260901130530 82 114 1.0 3.0 0.00 0.01 0.00 93 1018.6
20260901125700 81 49 1.0 3.0 0.00 0.01 0.00 95 1018.5
20260901124528 81 0.0 0.0 0.00 0.01 0.00 96 1018.4
20260901123536 80 118 1.0 4.0 0.00 0.01 0.00 96 1018.3
20260901122526 79 0.0 0.0 0.00 0.02 0.00 97 1018.2
20260901121533 79 0.0 0.0 0.00 0.02 0.00 97 1018.0
20260901120522 79 0.0 0.0 0.00 0.02 0.00 97 1017.9
20260901115531 79 0.0 0.0 0.00 0.02 0.00 97 1017.8
20260901114520 79 0.0 0.0 0.00 0.02 0.00 97 1017.7
20260901113528 79 0.0 0.0 0.00 0.02 0.00 97 1017.6
20260901112536 79 0.0 0.0 0.00 0.02 0.00 96 1017.5
20260901111526 79 0.0 0.0 0.00 0.02 0.00 96 1017.4
20260901110534 79 0.0 0.0 0.00 0.02 0.00 96 1017.1
20260901105543 79 0.0 0.0 0.00 0.02 0.00 96 1017.0
20260901104531 79 0.0 0.0 0.00 0.02 0.00 96 1017.0
20260901103541 79 0.0 0.0 0.00 0.02 0.00 96 1017.0
20260901102529 79 0.0 0.0 0.00 0.02 0.00 96 1016.8
20260901101537 79 0.0 0.0 0.00 0.02 0.00 95 1016.8
20260901100526 80 0.0 0.0 0.00 0.02 0.00 95 1016.9
20260901095534 80 0.0 0.0 0.00 0.02 0.00 95 1016.9
20260901094524 80 0.0 0.0 0.00 0.02 0.00 95 1017.0
20260901093551 80 0.0 0.0 0.00 0.02 0.00 95 1017.0
20260901092521 80 144 0.0 2.0 0.00 0.02 0.00 95 1016.9
20260901091529 80 0.0 0.0 0.00 0.02 0.00 95 1017.0
20260901090537 80 0.0 0.0 0.00 0.02 0.00 95 1017.0
20260901085526 80 0.0 0.0 0.00 0.02 0.00 95 1017.0
20260901084534 80 0.0 0.0 0.00 0.02 0.00 94 1017.0
20260901083524 80 0.0 0.0 0.00 0.02 0.00 94 1016.9
20260901082532 80 0.0 0.0 0.00 0.02 0.00 94 1016.9
20260901081522 81 0.0 0.0 0.00 0.02 0.00 93 1016.9
20260901080530 81 118 0.0 3.0 0.00 0.02 0.00 93 1016.9
20260901075519 81 135 0.0 3.0 0.00 0.02 0.00 93 1017.0
20260901074527 81 0.0 0.0 0.00 0.02 0.00 92 1017.1
20260901073535 81 0.0 0.0 0.00 0.02 0.00 92 1017.2
20260901072525 81 0.0 0.0 0.00 0.02 0.00 91 1017.3
20260901071533 82 137 1.0 4.0 0.00 0.02 0.00 91 1017.3
20260901070750 0 158 3.0 3.0 0.00 0.02 0.00 1017.3
20260901070542 82 143 2.0 4.0 0.00 0.02 0.00 91 1017.4
20260901065530 82 131 1.0 3.0 0.00 0.02 0.00 90 1017.4
20260901064520 82 148 2.0 5.0 0.00 0.02 0.00 90 1017.6
20260901063547 82 145 1.0 3.0 0.00 0.02 0.00 90 1017.6
20260901062535 82 90 0.0 2.0 0.00 0.02 0.00 90 1017.5
20260901061525 82 119 2.0 3.0 0.00 0.02 0.00 89 1017.5
20260901060533 82 110 2.0 4.0 0.00 0.02 0.00 89 1017.6
20260901055522 82 131 2.0 5.0 0.00 0.02 0.00 89 1017.5
20260901054531 82 0.0 0.0 0.00 0.02 0.00 89 1017.5
20260901053602 82 113 2.0 4.0 0.00 0.02 0.00 89 1017.4
20260901052528 82 139 2.0 4.0 0.00 0.02 0.00 89 1017.5
20260901051536 82 158 3.0 6.0 0.00 0.02 0.00 89 1017.6
20260901050525 82 125 3.0 6.0 0.00 0.02 0.00 88 1017.8
20260901045535 82 94 1.0 3.0 0.00 0.02 0.02 88 1017.8
20260901044522 82 119 1.0 3.0 0.00 0.02 0.02 88 1017.9
20260901043530 82 126 1.0 4.0 0.00 0.02 0.02 88 1017.7
20260901042520 82 145 2.0 4.0 0.00 0.02 0.02 88 1017.7
20260901041528 82 140 2.0 4.0 0.00 0.02 0.02 88 1017.7
20260901040536 82 140 2.0 4.0 0.00 0.02 0.02 88 1017.6
20260901035525 82 112 3.0 5.0 0.00 0.02 0.02 88 1017.7
20260901034554 82 151 2.0 4.0 0.00 0.02 0.02 88 1017.7
20260901033522 82 119 2.0 5.0 0.00 0.02 0.02 88 1017.7
20260901032549 83 163 2.0 5.0 0.00 0.02 0.02 87 1017.6
20260901031520 83 137 3.0 4.0 0.00 0.02 0.02 87 1017.5
20260901030531 83 113 3.0 4.0 0.00 0.02 0.02 87 1017.2
20260901025536 83 133 2.0 5.0 0.00 0.02 0.02 86 1017.3
20260901024525 83 130 3.0 5.0 0.00 0.02 0.02 86 1017.3
20260901023533 83 127 3.0 4.0 0.00 0.02 0.02 86 1017.2
20260901022523 83 117 3.0 6.0 0.00 0.02 0.02 86 1017.1
20260901021531 83 151 2.0 4.0 0.00 0.02 0.02 86 1017.1
20260901020520 83 86 1.0 3.0 0.00 0.02 0.02 86 1017.2
20260901015549 83 340 1.0 3.0 0.00 0.02 0.02 85 1017.1
20260901014536 83 94 2.0 4.0 0.00 0.02 0.02 85 1017.0
20260901013546 83 66 2.0 4.0 0.00 0.02 0.02 85 1016.9
20260901012533 83 73 1.0 3.0 0.00 0.02 0.02 83 1016.6
20260901011523 84 114 1.0 3.0 0.00 0.02 0.02 83 1016.5
20260901010531 84 50 2.0 3.0 0.00 0.02 0.02 82 1016.4
20260901005520 84 136 1.0 3.0 0.00 0.02 0.02 81 1016.4
20260901004609 85 128 1.0 3.0 0.00 0.02 0.02 80 1016.3
20260901003537 85 133 3.0 4.0 0.00 0.02 0.02 79 1016.3
20260901002547 85 114 1.0 4.0 0.00 0.02 0.02 78 1016.4
20260901001615 86 141 3.0 6.0 0.00 0.02 0.02 76 1016.4
20260901000524 86 133 2.0 4.0 0.00 0.02 0.02 75 1016.4
20260831235531 86 123 2.0 3.0 0.00 0.02 0.02 75 1016.5
20260831234521 86 123 2.0 4.0 0.00 0.02 0.02 75 1016.6
20260831233529 87 233 3.0 6.0 0.00 0.02 0.02 73 1016.7
20260831232537 87 79 2.0 3.0 0.00 0.02 0.02 72 1016.7
20260831231526 88 137 4.0 7.0 0.00 0.02 0.02 71 1016.8
20260831230535 88 138 3.0 5.0 0.00 0.02 0.02 72 1016.9
20260831225524 89 143 2.0 4.0 0.00 0.02 0.02 70 1016.9
20260831224532 89 147 3.0 6.0 0.00 0.02 0.02 68 1017.0
20260831223521 89 25 3.0 7.0 0.00 0.02 0.02 70 1017.0
20260831222529 89 96 3.0 6.0 0.00 0.02 0.02 70 1017.0
20260831221537 89 316 3.0 6.0 0.00 0.02 0.02 69 1017.1
20260831220527 89 125 3.0 5.0 0.00 0.02 0.02 69 1017.0
20260831215534 90 145 2.0 5.0 0.00 0.02 0.02 67 1017.0
20260831214604 91 86 3.0 6.0 0.00 0.02 0.02 65 1016.9
20260831213532 92 136 4.0 9.0 0.00 0.02 0.02 65 1016.8
20260831212521 91 145 4.0 5.0 0.00 0.02 0.02 67 1016.9
20260831211529 91 105 6.0 11.0 0.00 0.02 0.02 66 1017.1